TimeEDT,TemperatureF,Dew PointF,Humidity,Sea Level PressureIn,VisibilityMPH,Wind Direction,Wind SpeedMPH,Gust SpeedMPH,PrecipitationIn,Events,Conditions,WindDirDegrees,DateUTC
12:51 AM,42.1,28.0,58,30.14,10.0,West,6.9,-,N/A,,Scattered Clouds,260,2013-03-30 04:51:00
1:51 AM,39.9,28.0,63,30.14,10.0,West,6.9,-,N/A,,Partly Cloudy,280,2013-03-30 05:51:00
2:51 AM,41.0,28.9,62,30.14,10.0,West,8.1,-,N/A,,Partly Cloudy,270,2013-03-30 06:51:00
3:51 AM,39.9,28.9,65,30.14,10.0,West,9.2,-,N/A,,Partly Cloudy,270,2013-03-30 07:51:00
4:51 AM,39.2,28.4,65,30.14,10.0,West,8.1,-,N/A,,Partly Cloudy,270,2013-03-30 08:51:00
5:51 AM,39.0,28.0,65,30.14,10.0,Calm,Calm,-,N/A,,Clear,0,2013-03-30 09:51:00
6:51 AM,37.9,28.0,68,30.15,10.0,Calm,Calm,-,N/A,,Scattered Clouds,0,2013-03-30 10:51:00
7:51 AM,42.8,28.4,57,30.17,10.0,West,6.9,-,N/A,,Scattered Clouds,280,2013-03-30 11:51:00
8:51 AM,46.0,28.9,51,30.17,10.0,Variable,4.6,-,N/A,,Partly Cloudy,0,2013-03-30 12:51:00
9:51 AM,48.9,28.9,46,30.17,10.0,West,8.1,-,N/A,,Partly Cloudy,280,2013-03-30 13:51:00
10:51 AM,53.1,28.0,38,30.17,10.0,WNW,5.8,-,N/A,,Scattered Clouds,290,2013-03-30 14:51:00
11:51 AM,55.4,23.0,29,30.15,10.0,WNW,11.5,18.4,N/A,,Scattered Clouds,290,2013-03-30 15:51:00
12:51 PM,57.0,21.0,25,30.14,10.0,West,9.2,17.3,N/A,,Scattered Clouds,270,2013-03-30 16:51:00
1:51 PM,60.1,18.0,20,30.10,10.0,WNW,13.8,-,N/A,,Scattered Clouds,300,2013-03-30 17:51:00
2:51 PM,59.0,16.0,19,30.08,10.0,WNW,6.9,23.0,N/A,,Scattered Clouds,300,2013-03-30 18:51:00
3:51 PM,60.1,17.1,19,30.07,10.0,West,13.8,19.6,N/A,,Mostly Cloudy,270,2013-03-30 19:51:00
4:51 PM,60.1,16.0,18,30.06,10.0,West,12.7,16.1,N/A,,Scattered Clouds,280,2013-03-30 20:51:00
5:51 PM,59.0,15.8,19,30.06,10.0,West,8.1,-,N/A,,Scattered Clouds,280,2013-03-30 21:51:00
6:51 PM,57.2,14.0,18,30.07,10.0,West,10.4,-,N/A,,Scattered Clouds,280,2013-03-30 22:51:00
7:51 PM,55.0,12.0,18,30.08,10.0,NW,6.9,-,N/A,,Scattered Clouds,310,2013-03-30 23:51:00
8:51 PM,54.0,12.9,20,30.10,10.0,Calm,Calm,-,N/A,,Partly Cloudy,0,2013-03-31 00:51:00
9:51 PM,52.0,17.1,25,30.11,10.0,WNW,3.5,-,N/A,,Clear,290,2013-03-31 01:51:00
10:51 PM,48.0,23.0,37,30.12,10.0,SSW,5.8,-,N/A,,Clear,210,2013-03-31 02:51:00
11:51 PM,44.1,19.9,38,30.13,10.0,SSW,5.8,-,N/A,,Clear,210,2013-03-31 03:51:00